Location: Goudex
(43.3760°N, 0.9543°E)
Time: 05:15:36
(UTC+00:00)

Cosmos 2061 Rocket - Pass Details

Date: 20 November 2019
Orbit: 965 x 1013 km, 82.9° (Epoch: 12 December)

Event Time Altitude Azimuth Distance (km) Brightness Sun altitude
Rises 04:51:16 0° 184° (S) 3,671 7.0 -22.3°
Reaches altitude 10° 04:53:46 10° 184° (S) 2,721 6.4 -21.9°
Maximum altitude 05:00:01 87° 96° (E) 979 4.0 -20.8°
Drops below altitude 10° 05:06:14 10° 9° (N) 2,717 6.3 -19.6°
Sets 05:08:45 0° 9° (N) 3,666 7.0 -19.2°
